Zurück zum Katalog

DELTA 1 DEB

AktivSSO
NORAD 40758·DEBRIS·🇺🇸 United States

Gestartet Jul 29, 1976 von Vandenberg Space Force Base

Loading…

Nächste Überflüge (nächste 24 Stunden)

TLE

AktuellSource: Space-Track

Epoche: Sep 14, 2026, 03:18 UTC

1 40758U 76077GB  26257.13789649 -.00000023  00000-0  20334-3 0  9991
2 40758 102.5374 228.2078 0089099 308.8523 112.3605 12.25504159573008

Verfolge DELTA 1 DEB in Echtzeit mit AllMySat

Download on the App Store